Powrót do katalogu

STARLINK-33751

AktywnyŁącznośćVLEO
NORAD 63512·PAYLOAD·🇺🇸 United States

Wystrzelony Apr 7, 2025 z Vandenberg Space Force Base

Loading…

Następne Przeloty (najbliższe 24 godziny)

TLE

ŚwieżeSource: CelesTrak SupGP

Epoka: Sep 15, 2026, 03:47 UTC

1 63512C 25071V   26258.15812500  .00058497  00000+0  18805-2 0  2581
2 63512  53.1600 338.5995 0001246  90.5349 340.9082 15.31682406    12

Śledź STARLINK-33751 w czasie rzeczywistym z AllMySat

Download on the App Store